Hourly Weather Rutki

Today, 17 May, Monday

Time Temperature Precipitation Wind Pressure Humidity
00:00 +9°C° 0.1 mm 2 mps 735 mmHg 85%
01:00 +9°C° 0 mm 2 mps 735 mmHg 88%
02:00 +9°C° 0.2 mm 2 mps 735 mmHg 90%
03:00 +9°C° 0.2 mm 2 mps 735 mmHg 92%
04:00 +9°C° 0.2 mm 2 mps 735 mmHg 93%
05:00 +10°C° 0 mm 2 mps 735 mmHg 90%
06:00 +12°C° 0 mm 2 mps 735 mmHg 87%
07:00 +13°C° 0 mm 1 mps 735 mmHg 84%
08:00 +14°C° 0.2 mm 2 mps 735 mmHg 79%
09:00 +15°C° 0.2 mm 2 mps 735 mmHg 75%
10:00 +16°C° 0.2 mm 2 mps 735 mmHg 70%
11:00 +16°C° 0.5 mm 2 mps 735 mmHg 72%
12:00 +16°C° 0.5 mm 2 mps 735 mmHg 73%
13:00 +16°C° 0.5 mm 2 mps 735 mmHg 74%
14:00 +15°C° 1.1 mm 2 mps 736 mmHg 80%
15:00 +13°C° 1.1 mm 3 mps 736 mmHg 86%
16:00 +12°C° 1.1 mm 3 mps 736 mmHg 92%
17:00 +12°C° 0.8 mm 2 mps 736 mmHg 92%
18:00 +12°C° 0.8 mm 2 mps 736 mmHg 92%
19:00 +12°C° 0.8 mm 1 mps 736 mmHg 93%
20:00 +10°C° 0.1 mm 2 mps 736 mmHg 92%
21:00 +10°C° 0.1 mm 2 mps 737 mmHg 91%
22:00 +10°C° 0.1 mm 3 mps 737 mmHg 91%
23:00 +10°C° 0.1 mm 3 mps 737 mmHg 91%

Tomorrow, 18 May, Tuesday

Time Temperature Precipitation Wind Pressure Humidity
00:00 +10°C° 0.1 mm 4 mps 737 mmHg 91%
01:00 +8°C° 0.1 mm 4 mps 737 mmHg 91%
02:00 +8°C° 0 mm 4 mps 738 mmHg 91%
03:00 +7°C° 0 mm 4 mps 738 mmHg 92%
04:00 +7°C° 0 mm 4 mps 738 mmHg 92%
05:00 +8°C° 0 mm 4 mps 738 mmHg 89%
06:00 +10°C° 0 mm 4 mps 739 mmHg 87%
07:00 +10°C° 0 mm 5 mps 739 mmHg 84%
08:00 +10°C° 0.1 mm 5 mps 739 mmHg 82%
09:00 +12°C° 0.1 mm 5 mps 739 mmHg 80%
10:00 +11°C° 0.1 mm 6 mps 739 mmHg 79%
11:00 +13°C° 0.2 mm 6 mps 739 mmHg 77%
12:00 +12°C° 0.2 mm 7 mps 740 mmHg 75%
13:00 +14°C° 0.2 mm 7 mps 740 mmHg 73%
14:00 +14°C° 0.1 mm 6 mps 740 mmHg 72%
15:00 +15°C° 0.1 mm 6 mps 739 mmHg 70%
16:00 +15°C° 0.1 mm 5 mps 739 mmHg 69%
17:00 +14°C° 0.1 mm 4 mps 740 mmHg 74%
18:00 +13°C° 0.1 mm 3 mps 740 mmHg 79%
19:00 +12°C° 0.1 mm 2 mps 740 mmHg 84%
20:00 +10°C° 0 mm 3 mps 740 mmHg 87%
21:00 +9°C° 0 mm 3 mps 741 mmHg 89%
22:00 +8°C° 0 mm 3 mps 741 mmHg 92%
23:00 +8°C° 0 mm 3 mps 741 mmHg 92%

Day after tomorrow, 19 May, Wednesday

Time Temperature Precipitation Wind Pressure Humidity
00:00 +8°C° 0 mm 3 mps 741 mmHg 92%
01:00 +7°C° 0 mm 3 mps 741 mmHg 93%
02:00 +7°C° 0 mm 3 mps 741 mmHg 93%
03:00 +7°C° 0 mm 3 mps 742 mmHg 93%
04:00 +7°C° 0 mm 3 mps 742 mmHg 93%
05:00 +8°C° 0 mm 3 mps 742 mmHg 89%
06:00 +9°C° 0 mm 3 mps 742 mmHg 84%
07:00 +10°C° 0 mm 4 mps 742 mmHg 80%
08:00 +11°C° 0.1 mm 4 mps 742 mmHg 76%
09:00 +12°C° 0.1 mm 4 mps 742 mmHg 73%
10:00 +13°C° 0.1 mm 4 mps 742 mmHg 69%
11:00 +13°C° 0.4 mm 4 mps 742 mmHg 71%
12:00 +13°C° 0.4 mm 5 mps 742 mmHg 73%
13:00 +13°C° 0.4 mm 5 mps 742 mmHg 75%
14:00 +12°C° 0.3 mm 5 mps 743 mmHg 76%
15:00 +12°C° 0.3 mm 5 mps 743 mmHg 77%
16:00 +11°C° 0.3 mm 6 mps 743 mmHg 77%
17:00 +10°C° 0 mm 5 mps 743 mmHg 80%
18:00 +10°C° 0 mm 4 mps 743 mmHg 83%
19:00 +8°C° 0 mm 4 mps 743 mmHg 85%
20:00 +8°C° 0 mm 4 mps 743 mmHg 86%
21:00 +8°C° 0 mm 3 mps 744 mmHg 88%
22:00 +8°C° 0 mm 3 mps 744 mmHg 89%
23:00 +8°C° 0 mm 3 mps 744 mmHg 88%

20 May, Thursday

Time Temperature Precipitation Wind Pressure Humidity
00:00 +8°C° 0 mm 3 mps 744 mmHg 87%
01:00 +8°C° 0 mm 3 mps 744 mmHg 87%
02:00 +8°C° 0 mm 3 mps 744 mmHg 87%
03:00 +8°C° 0 mm 3 mps 744 mmHg 86%
04:00 +8°C° 0 mm 3 mps 744 mmHg 86%
05:00 +8°C° 0 mm 3 mps 745 mmHg 86%
06:00 +8°C° 0 mm 3 mps 745 mmHg 85%
07:00 +9°C° 0 mm 3 mps 746 mmHg 84%
08:00 +10°C° 0 mm 3 mps 746 mmHg 79%
09:00 +11°C° 0 mm 4 mps 746 mmHg 73%
10:00 +13°C° 0 mm 4 mps 746 mmHg 68%
11:00 +13°C° 0.3 mm 5 mps 746 mmHg 68%
12:00 +14°C° 0.3 mm 6 mps 746 mmHg 69%
13:00 +14°C° 0.3 mm 6 mps 746 mmHg 69%
14:00 +14°C° 0.3 mm 6 mps 746 mmHg 70%
15:00 +14°C° 0.3 mm 6 mps 746 mmHg 71%
16:00 +13°C° 0.3 mm 6 mps 746 mmHg 72%
17:00 +12°C° 0.1 mm 5 mps 746 mmHg 75%
18:00 +10°C° 0.1 mm 5 mps 746 mmHg 78%
19:00 +10°C° 0.1 mm 4 mps 747 mmHg 80%
20:00 +8°C° 0 mm 4 mps 747 mmHg 84%
21:00 +8°C° 0 mm 3 mps 747 mmHg 87%
22:00 +7°C° 0 mm 3 mps 748 mmHg 91%
23:00 +5°C° 0 mm 3 mps 748 mmHg 92%

21 May, Friday

Time Temperature Precipitation Wind Pressure Humidity
00:00 +5°C° 0 mm 3 mps 748 mmHg 92%
01:00 +5°C° 0 mm 2 mps 748 mmHg 93%
02:00 +5°C° 0 mm 2 mps 748 mmHg 93%
03:00 +5°C° 0 mm 2 mps 748 mmHg 92%
04:00 +5°C° 0 mm 2 mps 748 mmHg 92%
05:00 +7°C° 0 mm 2 mps 748 mmHg 87%
06:00 +8°C° 0 mm 2 mps 748 mmHg 82%
07:00 +10°C° 0 mm 2 mps 748 mmHg 76%
08:00 +12°C° 0.1 mm 2 mps 748 mmHg 72%
09:00 +13°C° 0.1 mm 2 mps 747 mmHg 68%
10:00 +15°C° 0.1 mm 2 mps 747 mmHg 63%
11:00 +15°C° 0.1 mm 2 mps 747 mmHg 61%
12:00 +16°C° 0.1 mm 2 mps 746 mmHg 59%
13:00 +16°C° 0.1 mm 2 mps 746 mmHg 58%
14:00 +17°C° 0 mm 2 mps 745 mmHg 56%
15:00 +17°C° 0 mm 2 mps 745 mmHg 55%
16:00 +18°C° 0 mm 1 mps 744 mmHg 53%
17:00 +16°C° 0 mm 2 mps 744 mmHg 59%
18:00 +15°C° 0 mm 2 mps 744 mmHg 65%
19:00 +14°C° 0 mm 2 mps 743 mmHg 71%
20:00 +13°C° 0 mm 2 mps 743 mmHg 72%
21:00 +13°C° 0 mm 2 mps 743 mmHg 72%
22:00 +11°C° 0 mm 3 mps 742 mmHg 72%
23:00 +10°C° 0 mm 3 mps 742 mmHg 74%

22 May, Saturday

Time Temperature Precipitation Wind Pressure Humidity
00:00 +10°C° 0 mm 3 mps 742 mmHg 76%
01:00 +9°C° 0 mm 3 mps 741 mmHg 77%
02:00 +9°C° 0 mm 3 mps 741 mmHg 76%
03:00 +10°C° 0 mm 4 mps 740 mmHg 74%
04:00 +10°C° 0 mm 4 mps 740 mmHg 72%
05:00 +11°C° 0 mm 4 mps 740 mmHg 72%
06:00 +12°C° 0 mm 4 mps 740 mmHg 72%
07:00 +13°C° 0 mm 4 mps 740 mmHg 72%
08:00 +14°C° 0 mm 4 mps 740 mmHg 69%
09:00 +15°C° 0 mm 5 mps 740 mmHg 65%
10:00 +16°C° 0 mm 5 mps 741 mmHg 62%
11:00 +16°C° 0.2 mm 5 mps 740 mmHg 67%
12:00 +15°C° 0.2 mm 5 mps 740 mmHg 71%
13:00 +14°C° 0.2 mm 5 mps 740 mmHg 75%
14:00 +13°C° 1.1 mm 5 mps 741 mmHg 80%
15:00 +12°C° 1.1 mm 5 mps 741 mmHg 84%
16:00 +11°C° 1.1 mm 4 mps 741 mmHg 89%
17:00 +11°C° 0.2 mm 4 mps 741 mmHg 87%
18:00 +10°C° 0.2 mm 4 mps 741 mmHg 85%
19:00 +10°C° 0.2 mm 3 mps 741 mmHg 82%
20:00 +10°C° 0 mm 3 mps 741 mmHg 83%
21:00 +9°C° 0 mm 3 mps 741 mmHg 83%
22:00 +8°C° 0 mm 3 mps 742 mmHg 84%
23:00 +7°C° 0 mm 3 mps 742 mmHg 85%
Show more